Rochester, Indiana, United States (46975)
Lat: 41.06N, Lon: 86.22W
Wx Zone: INZ015
Local Info
Past Weather Observations for Today

NOTE: This archive is for the closest National Weather Service station to Rochester. Information may differ from the station used for current weather conditions.

Click here for Long-term Archive

Time Weather Temperature Dewpoint Humidity Pressure Winds Precip Visibility
17:15
Partly Cloudy
81°F / 27°C 59°F / 15°C 48% 30.12 in
(1020 mb)
E 4.6 mph
(E 7 kph)
- 10SM
16:55
Clear
81°F / 27°C 57°F / 14°C 45% 30.12 in
(1020 mb)
Calm - 10SM
16:35
Clear
81°F / 27°C 57°F / 14°C 45% 30.12 in
(1020 mb)
Calm - 10SM
16:15
Clear
81°F / 27°C 55°F / 13°C 42% 30.12 in
(1020 mb)
Calm - 10SM
15:55
Clear
81°F / 27°C 57°F / 14°C 45% 30.12 in
(1020 mb)
Calm - 10SM
15:35
Clear
79°F / 26°C 57°F / 14°C 48% 30.15 in
(1021 mb)
Calm - 10SM
15:15
Clear
79°F / 26°C 59°F / 15°C 51% 30.15 in
(1021 mb)
Calm - 10SM
14:55
Clear
79°F / 26°C 61°F / 16°C 54% 30.15 in
(1021 mb)
SSW 5.8 mph
(SSW 9 kph)
- 10SM
14:35
Clear
79°F / 26°C 59°F / 15°C 51% 30.15 in
(1021 mb)
SE 3.5 mph
(SE 6 kph)
- 10SM
14:15
Clear
79°F / 26°C 59°F / 15°C 51% 30.18 in
(1022 mb)
Calm - 10SM
13:55
Clear
77°F / 25°C 61°F / 16°C 57% 30.18 in
(1022 mb)
SSE 6.9 mph
(SSE 11 kph)
- 10SM
13:35
Clear
77°F / 25°C 61°F / 16°C 57% 30.18 in
(1022 mb)
SSE 5.8 mph
(SSE 9 kph)
- 10SM
13:15
Clear
75°F / 24°C 61°F / 16°C 61% 30.18 in
(1022 mb)
Calm - 10SM
12:55
Clear
73°F / 23°C 61°F / 16°C 65% 30.18 in
(1022 mb)
SE 3.5 mph
(SE 6 kph)
- 10SM
12:30
Clear
72°F / 22°C 61°F / 16°C 69% 30.21 in
(1023 mb)
S 3.5 mph
(S 6 kph)
- 7SM
12:20
Clear
72°F / 22°C 59°F / 15°C 65% 30.21 in
(1023 mb)
SE 3.5 mph
(SE 6 kph)
- 7SM
11:55
Clear
Hazy
70°F / 21°C 61°F / 16°C 73% 30.21 in
(1023 mb)
E 5.8 mph
(E 9 kph)
- 5SM
11:35
Clear
68°F / 20°C 59°F / 15°C 73% 30.21 in
(1023 mb)
SE 5.8 mph
(SE 9 kph)
- 7SM
11:15
Clear
68°F / 20°C 59°F / 15°C 73% 30.21 in
(1023 mb)
S 4.6 mph
(S 7 kph)
- 7SM
10:55
Clear
Hazy
64°F / 18°C 59°F / 15°C 83% 30.21 in
(1023 mb)
SE 5.8 mph
(SE 9 kph)
- 5SM
10:35
Clear
64°F / 18°C 59°F / 15°C 83% 30.21 in
(1023 mb)
SSE 4.6 mph
(SSE 7 kph)
- 7SM
10:15
Clear
63°F / 17°C 57°F / 14°C 83% 30.21 in
(1023 mb)
SE 6.9 mph
(SE 11 kph)
- 7SM
09:55
Partly Cloudy
Fog And Mist
61°F / 16°C 55°F / 13°C 83% 30.24 in
(1024 mb)
SE 5.8 mph
(SE 9 kph)
- 5SM
09:35
Mostly Cloudy
Fog And Mist
59°F / 15°C 55°F / 13°C 88% 30.24 in
(1024 mb)
SE 5.8 mph
(SE 9 kph)
- 4SM
09:15
Overcast
Fog And Mist
55°F / 13°C 55°F / 13°C 100% 30.24 in
(1024 mb)
SE 4.6 mph
(SE 7 kph)
- 3SM
08:55
Overcast
Fog And Mist
55°F / 13°C 54°F / 12°C 94% 30.24 in
(1024 mb)
SE 3.5 mph
(SE 6 kph)
- 2 1/2SM
08:35
Overcast
Fog And Mist
54°F / 12°C 54°F / 12°C 100% 30.24 in
(1024 mb)
SE 4.6 mph
(SE 7 kph)
- 2SM
08:15
Overcast
Fog And Mist
54°F / 12°C 54°F / 12°C 100% 30.24 in
(1024 mb)
SE 3.5 mph
(SE 6 kph)
- 1 3/4SM
07:55
Overcast
Fog And Mist
54°F / 12°C 54°F / 12°C 100% 30.21 in
(1023 mb)
E 5.8 mph
(E 9 kph)
- 1SM
07:35
Overcast
Fog
52°F / 11°C 52°F / 11°C 100% 30.21 in
(1023 mb)
SE 4.6 mph
(SE 7 kph)
- 1/2SM
07:15
Overcast
Fog
52°F / 11°C 52°F / 11°C 100% 30.21 in
(1023 mb)
SE 5.8 mph
(SE 9 kph)
- 1/4SM
06:55
Overcast
Fog
52°F / 11°C 52°F / 11°C 100% 30.21 in
(1023 mb)
SE 5.8 mph
(SE 9 kph)
- 1/2SM
Time Weather Temperature Dewpoint Humidity Pressure Winds Precip Visibility


Weather for websites

WeatherForYou.com, LLC is not responsible for any damages or problems caused by this service. Current weather conditions are obtained from the closest station including government and personal stations which may have varying degrees of accuracy. Weather forecasts are derived from the NOAA NDFD. Like all things, this site belongs to Jesus Christ... He just trusts us to maintain it. If you have any questions or comments email webmaster@weatherforyou.com

Copyright © 2015, WeatherForYou.com LLC. All rights reserved.